Location: Treviso
(45.6669°N, 12.2430°E)
Time: 20:51:03
(UTC+02:00)

ISS - Pass Details

Date: 27 May 2017
Orbit: 400 x 408 km, 51.6° (Epoch: 20 July)

Event Time Altitude Azimuth Distance (km) Brightness Sun altitude
Rises 22:16:22 0° 255° (WSW) 2,340 0.4 -12.4°
Reaches altitude 10° 22:18:30 10° 261° (W) 1,479 -0.6 -12.6°
Maximum altitude 22:21:45 51° 339° (NNW) 527 -2.8 -13.0°
Drops below altitude 10° 22:25:00 10° 56° (NE) 1,480 -1.0 -13.3°
Enters shadow 22:31:39 -13° 67° (ENE) 4,185 1.2 -14.1°
